N1EDF Weather Reports


Display with metric or nautical units.
time (UTC)temp
F
wind
direction
speed
MPH
gust
MPH
rain 1hr
in
rain 24hr
in
rain mn
in
humidity
%
barometer
mb
20210922151006 75 200 0.0 3.0 0.00 0.00 0.00 3 1023.2
20210922145006 75 189 0.0 6.0 0.00 0.00 0.00 3 1023.4
20210922144008 75 208 0.0 6.0 0.00 0.00 0.00 3 1023.5
20210922143006 75 196 0.0 2.0 0.00 0.00 0.00 3 1023.6
20210922142006 75 211 0.0 3.0 0.00 0.00 0.00 3 1023.7
20210922141004 74 205 0.0 5.0 0.00 0.00 0.00 3 1023.7
20210922140006 73 170 0.0 9.0 0.00 0.00 0.00 3 1023.8
20210922133008 69 236 0.0 3.0 0.00 0.00 0.00 3 1023.9
20210922131006 69 222 1.0 7.0 0.00 0.00 0.00 3 1023.9
20210922130008 69 195 0.0 3.0 0.00 0.00 0.00 3 1024.0
20210922124006 70 224 0.0 2.0 0.00 0.00 0.00 3 1024.0
20210922122006 70 198 0.0 2.0 0.00 0.00 0.00 3 1024.1
20210922120006 70 204 0.0 1.0 0.00 0.00 0.00 3 1024.1
20210922113006 69 204 0.0 0.0 0.00 0.00 0.00 3 1024.1
20210922112008 69 199 0.0 0.0 0.00 0.00 0.00 3 1024.2
20210922111008 69 199 0.0 0.0 0.00 0.00 0.00 3 1024.2
20210922110009 69 199 0.0 0.0 0.00 0.00 0.00 3 1024.3
20210922105006 69 198 0.0 1.0 0.00 0.00 0.00 3 1024.3
20210922104007 69 198 0.0 1.0 0.00 0.00 0.00 3 1024.3
20210922100008 69 196 0.0 0.0 0.00 0.00 0.00 3 1024.3
20210922095008 69 196 0.0 3.0 0.00 0.00 0.00 3 1024.4
20210922094006 69 156 0.0 0.0 0.00 0.00 0.00 3 1024.4
20210922093010 70 156 0.0 1.0 0.00 0.00 0.00 3 1024.5
20210922092005 70 156 0.0 0.0 0.00 0.00 0.00 3 1024.6
20210922091006 70 156 0.0 1.0 0.00 0.00 0.00 3 1024.6
20210922085006 70 156 0.0 0.0 0.00 0.00 0.00 3 1024.8
20210922082008 70 156 0.0 0.0 0.00 0.00 0.00 3 1024.7
20210922081007 70 156 0.0 0.0 0.00 0.00 0.00 3 1024.8
20210922080005 70 156 0.0 1.0 0.00 0.00 0.00 3 1024.8
20210922075008 70 156 0.0 0.0 0.00 0.00 0.00 3 1025.0
20210922074009 70 156 0.0 1.0 0.00 0.00 0.00 3 1025.1
20210922072010 70 156 0.0 0.0 0.00 0.00 0.00 3 1025.3
20210922071008 70 156 0.0 0.0 0.00 0.00 0.00 3 1025.4
20210922070006 70 156 0.0 0.0 0.00 0.00 0.00 3 1025.4
20210922065008 70 156 0.0 0.0 0.00 0.00 0.00 3 1025.5
20210922062006 69 156 0.0 0.0 0.00 0.00 0.00 3 1025.7
20210922061008 69 156 0.0 0.0 0.00 0.00 0.00 3 1025.8
20210922060006 68 156 0.0 0.0 0.00 0.00 0.00 3 1025.9
20210922055006 68 156 0.0 0.0 0.00 0.00 0.00 3 1026.0
20210922052006 66 156 0.0 0.0 0.00 0.00 0.00 3 1026.4
20210922051006 65 156 0.0 0.0 0.00 0.00 0.00 3 1026.5
20210922045004 65 156 0.0 0.0 0.00 0.00 0.00 3 1026.5
20210922044007 65 156 0.0 0.0 0.00 0.00 0.00 3 1026.5
20210922042009 64 156 0.0 0.0 0.00 0.00 0.00 3 1026.7
20210922041004 64 156 0.0 0.0 0.00 0.00 0.00 3 1026.8
20210922040009 64 156 0.0 0.0 0.00 0.00 0.00 3 1026.9
20210922035006 64 156 0.0 0.0 0.00 0.00 0.00 3 1027.0
20210922034004 64 156 0.0 0.0 0.00 0.00 0.00 3 1027.0
20210922032006 64 156 0.0 0.0 0.00 0.00 0.00 3 1027.1
20210922025008 63 156 0.0 0.0 0.00 0.00 0.00 3 1027.3
20210922024006 63 156 0.0 0.0 0.00 0.00 0.00 3 1027.5
20210922023007 62 156 0.0 0.0 0.00 0.00 0.00 3 1027.6
20210922022007 62 156 0.0 0.0 0.00 0.00 0.00 3 1027.6
20210922013004 62 156 0.0 0.0 0.00 0.00 0.00 3 1027.6
20210922012006 62 156 0.0 0.0 0.00 0.00 0.00 3 1027.6
20210922011004 62 156 0.0 0.0 0.00 0.00 0.00 3 1027.6
20210922005004 62 156 0.0 0.0 0.00 0.00 0.00 3 1027.6
20210922004006 62 156 0.0 0.0 0.00 0.00 0.00 3 1027.8
20210922003004 62 156 0.0 0.0 0.00 0.00 0.00 3 1027.9
20210922002007 62 156 0.0 0.0 0.00 0.00 0.00 3 1027.9
20210922001006 62 156 0.0 0.0 0.00 0.00 0.00 3 1027.9
20210922000004 63 156 0.0 0.0 0.00 0.00 0.00 3 1028.0
20210921235004 63 156 0.0 0.0 0.00 0.00 0.00 3 1028.0
20210921234004 64 156 0.0 0.0 0.00 0.00 0.00 3 1028.0
20210921233008 65 156 0.0 0.0 0.00 0.00 0.00 3 1028.0
20210921232006 66 156 0.0 0.0 0.00 0.00 0.00 3 1027.9
20210921230005 68 156 0.0 0.0 0.00 0.00 0.00 3 1027.9
20210921225004 69 156 0.0 0.0 0.00 0.00 0.00 3 1027.8
20210921222009 71 156 0.0 0.0 0.00 0.00 0.00 22 1027.9
20210921220004 72 156 0.0 0.0 0.00 0.00 0.00 33 1028.0
20210921215008 72 156 0.0 0.0 0.00 0.00 0.00 34 1028.0
20210921214004 73 156 0.0 0.0 0.00 0.00 0.00 34 1028.0
20210921213009 73 156 0.0 1.0 0.00 0.00 0.00 34 1028.1
20210921205004 74 208 0.0 3.0 0.00 0.00 0.00 35 1028.2
20210921204006 74 203 0.0 0.0 0.00 0.00 0.00 35 1028.1
20210921202006 74 203 0.0 1.0 0.00 0.00 0.00 35 1028.1
20210921200004 74 203 0.0 1.0 0.00 0.00 0.00 36 1028.1
20210921194005 75 203 0.0 3.0 0.00 0.00 0.00 36 1028.1
20210921193004 75 205 0.0 2.0 0.00 0.00 0.00 35 1028.1
20210921192004 76 154 0.0 1.0 0.00 0.00 0.00 35 1028.4
20210921190006 76 200 0.0 5.0 0.00 0.00 0.00 33 1028.5
20210921183004 75 203 0.0 1.0 0.00 0.00 0.00 27 1028.8
20210921180007 74 204 0.0 1.0 0.00 0.00 0.00 22 1029.2
20210921175005 73 173 0.0 0.0 0.00 0.00 0.00 22 1029.3
20210921174006 73 173 0.0 1.0 0.00 0.00 0.00 24 1029.5
20210921171005 73 224 0.0 0.0 0.00 0.00 0.00 20 1029.9
20210921170005 72 227 0.0 2.0 0.00 0.00 0.00 14 1030.0
20210921164006 72 162 0.0 2.0 0.00 0.00 0.00 12 1030.2
20210921162011 72 227 0.0 0.0 0.00 0.00 0.00 3 1030.2
20210921161005 71 227 0.0 3.0 0.00 0.00 0.00 5 1030.2
20210921160008 71 164 0.0 3.0 0.00 0.00 0.00 3 1030.3